Tracking 27172 objects as of 2-Apr-2023
HD Live streaming from Space Station
objects crossing your sky now

SL-16 DEB

Track SL-16 DEB now!
10-day predictions


NORAD ID: 22374
Int'l Code: 1992-093BP
Perigee: 816.0 km
Apogee: 1,077.0 km
Inclination: 70.8 °
Period: 103.8 minutes
Semi major axis: 7317 km
RCS: 0.0173 m2 (small)
Launch date: December 25, 1992
Source: Commonwealth of Independent States (former USSR) (CIS)
Launch site: TYURATAM MISSILE AND SPACE COMPLEX (TTMTR)

Note: This is SATELLITE DEBRIS
Your satellite tracking list
Your tracking list is empty




NASA's NSSDC Master Catalog

Two Line Element Set (TLE):
1 22374U 92093BP  23091.81418220  .00002171  00000-0  16717-2 0  9997
2 22374  70.7929   7.0969 0178310   2.6079  53.7139 13.86950373523945
Source of the keplerian elements: AFSPC